Weather History for Goodland, KS

Change the Weather History Date:

Wednesday, May 30, 2012

  Actual Average Record
Temperature  
Mean Temperature 70 °F 64 °F  
Max Temperature 91 °F 78 °F 96 °F (1934)
Min Temperature 48 °F 51 °F 39 °F (1946)
Degree Days  
Heating Degree Days 0 3  
Month to date heating degree days 117 208  
Since 1 July heating degree days 5036 5863  
Cooling Degree Days 5 2  
Month to date cooling degree days 71 37  
Year to date cooling degree days 88 41  
Growing Degree Days 22 (Base 50)    
Moisture  
Dew Point 44 °F    
Average Humidity 52    
Maximum Humidity 83    
Minimum Humidity 21    
Precipitation  
Precipitation 0.01 in 0.12 in 1.76 in (1938)
Month to date precipitation 0.45 2.83  
Year to date precipitation 4.42 6.36  
Snow  
Snow 0.00 in 0.00 in - ()
Month to date snowfall 0.0 0.5  
Since 1 July snowfall 17.1 35.5  
Snow Depth 0.00 in    
Sea Level Pressure  
Sea Level Pressure 29.86 in    
Wind  
Wind Speed 13 mph (ESE)    
Max Wind Speed 36 mph    
Max Gust Speed 45 mph    
Visibility 10 miles    
Events Thunderstorm    
T = Trace of Precipitation, MM = Missing Value Source: NWS Daily Summary

Daily Weather History Graph

Daily Weather History Graph

Search for Another Location

Airport:

Trip Planner

Search our weather history database for the weather conditions in past years. The results will help you decide how hot, cold, wet, or windy it might be!

Date:

Astronomy

May. 30, 2012 Rise Set
Actual Time 5:22 AM MDT 8:06 PM MDT
Civil Twilight 4:50 AM MDT 8:38 PM MDT
Nautical Twilight 4:11 AM MDT 9:17 PM MDT
Astronomical Twilight 3:26 AM MDT 10:02 PM MDT
Moon 2:49 PM MDT (5/30) 1:46 AM MDT (5/30)
Length of Visible Light 15h 47m
Length of Day
14h 44m
Waxing Gibbous, 71% of the Moon is Illuminated
May 30
Waxing Gibbous
Jun 4
Full
Jun 11
Last Quarter
Jun 19
New
Jun 26
First Quarter

Hourly Weather History & Observations

Time (MDT) Temp. Dew Point Humidity Pressure Visibility Wind Dir Wind Speed Gust Speed Precip Events Conditions
12:53 AM 54.0 °F 41.0 °F 62% 29.91 in 10.0 mi SE 8.1 mph - N/A   Clear
1:53 AM 52.0 °F 39.9 °F 63% 29.89 in 10.0 mi SSE 5.8 mph - N/A   Clear
2:53 AM 52.0 °F 39.9 °F 63% 29.89 in 10.0 mi SSE 10.4 mph - N/A   Clear
3:53 AM 48.0 °F 39.9 °F 74% 29.90 in 10.0 mi SSE 6.9 mph - N/A   Clear
4:53 AM 51.1 °F 39.9 °F 66% 29.90 in 10.0 mi South 9.2 mph - N/A   Clear
5:53 AM 52.0 °F 39.9 °F 63% 29.90 in 10.0 mi South 8.1 mph - N/A   Clear
6:53 AM 57.9 °F 41.0 °F 53% 29.89 in 10.0 mi SSE 10.4 mph - N/A   Clear
7:53 AM 63.0 °F 45.0 °F 52% 29.89 in 10.0 mi South 17.3 mph - N/A   Clear
8:53 AM 68.0 °F 46.9 °F 47% 29.89 in 10.0 mi SSE 16.1 mph - N/A   Partly Cloudy
9:16 AM 66.2 °F 46.4 °F 49% 29.98 in 10.0 mi SE 5.8 mph - N/A   Mostly Cloudy
9:37 AM 66.2 °F 48.2 °F 52% 29.98 in 10.0 mi Variable 3.5 mph - N/A   Overcast
9:53 AM 70.0 °F 48.0 °F 46% 29.87 in 10.0 mi South 10.4 mph - N/A   Overcast
10:53 AM 72.0 °F 50.0 °F 46% 29.83 in 10.0 mi SSE 10.4 mph 17.3 mph N/A   Partly Cloudy
11:53 AM 77.0 °F 52.0 °F 42% 29.81 in 10.0 mi South 11.5 mph 17.3 mph N/A   Clear
12:53 PM 80.1 °F 52.0 °F 38% 29.78 in 10.0 mi Variable 5.8 mph 19.6 mph N/A   Clear
1:53 PM 84.0 °F 51.1 °F 32% 29.75 in 10.0 mi South 8.1 mph 16.1 mph N/A   Scattered Clouds
2:53 PM 82.9 °F 48.9 °F 31% 29.70 in 10.0 mi SSW 13.8 mph - N/A   Scattered Clouds
3:02 PM 82.4 °F 48.2 °F 30% 29.81 in 10.0 mi SW 8.1 mph - N/A Thunderstorm Scattered Clouds
3:17 PM 80.6 °F 44.6 °F 28% 29.81 in 10.0 mi NNW 18.4 mph 24.2 mph N/A   Scattered Clouds
3:39 PM 86.0 °F 39.2 °F 19% 29.80 in 10.0 mi NNW 4.6 mph - 0.01 in Thunderstorm Partly Cloudy
3:53 PM 87.1 °F 39.0 °F 18% 29.69 in 10.0 mi Variable 6.9 mph 16.1 mph 0.01 in Thunderstorm Partly Cloudy
4:07 PM 89.6 °F 37.4 °F 16% 29.79 in 10.0 mi NNW 10.4 mph 16.1 mph N/A   Partly Cloudy
4:24 PM 86.0 °F 24.8 °F 11% 29.80 in 10.0 mi NNE 9.2 mph 29.9 mph N/A Thunderstorm Partly Cloudy
4:39 PM 84.2 °F 48.2 °F 29% 29.80 in 10.0 mi East 16.1 mph 25.3 mph N/A   Clear
4:53 PM 82.9 °F 48.9 °F 31% 29.69 in 10.0 mi East 13.8 mph - N/A   Clear
5:32 PM 82.4 °F 37.4 °F 20% 29.83 in 8.0 mi North 26.5 mph 44.9 mph N/A   Squalls
5:53 PM 80.1 °F 37.0 °F 21% 29.75 in 10.0 mi North 26.5 mph 39.1 mph N/A   Partly Cloudy
6:53 PM 71.1 °F 43.0 °F 36% 29.79 in 10.0 mi North 26.5 mph 43.7 mph N/A   Clear
7:53 PM 64.0 °F 42.1 °F 45% 29.85 in 10.0 mi NNE 27.6 mph 36.8 mph N/A   Clear
8:53 PM 59.0 °F 43.0 °F 55% 29.91 in 10.0 mi NNE 16.1 mph 29.9 mph N/A   Clear
9:53 PM 55.0 °F 42.1 °F 62% 29.95 in 10.0 mi North 12.7 mph - N/A   Clear
10:53 PM 53.1 °F 46.0 °F 77% 29.97 in 10.0 mi NNE 13.8 mph - N/A   Clear
11:32 PM 53.6 °F 46.4 °F 77% 30.08 in 10.0 mi NNE 15.0 mph - N/A   Mostly Cloudy
11:53 PM 52.0 °F 46.0 °F 80% 29.98 in 10.0 mi NE 11.5 mph - N/A   Scattered Clouds